1498852800.68,16680,16.56,73558.5,3.19,-11.67,-10.75,0,*7D
1498852801.94,16681,16.56,73554.5,3.19,-11.41,-10.67,0,*7B
1498852803.22,16682,16.56,73556.0,3.19,-11.29,-10.67,0,*76
1498852804.48,16683,16.56,73556.0,3.19,-11.23,-10.67,0,*7D
1498852805.72,16684,16.56,73560.3,3.19,-11.15,-10.71,0,*78
1498852806.97,16685,16.56,73556.5,3.19,-11.15,-10.75,0,*7D
1498852808.17,16686,16.56,73550.8,3.21,-11.11,-10.89,0,*72
1498852809.4,16687,16.56,73546.3,3.17,-11.15,-11.07,0,*75
1498852810.63,16688,16.56,73536.8,3.19,-11.01,-11.11,0,*76
1498852811.85,16689,16.56,73556.0,3.19,-10.97,-11.23,0,*78
1498852813.1,16690,16.56,73558.8,3.19,-11.01,-11.37,0,*7B
1498852814.3,16691,16.56,73566.5,3.17,-11.15,-11.45,0,*74
1498852815.5,16692,16.56,73568.8,3.17,-11.19,-11.45,0,*7B
1498852816.77,16693,16.56,73572.8,3.19,-11.37,-11.51,0,*7D
1498852818.01,16694,16.56,73574.0,3.21,-11.37,-11.55,0,*75
1498852819.29,16695,16.56,73572.0,3.19,-11.37,-11.67,0,*7E
1498852820.54,16696,16.56,73574.5,3.19,-11.41,-11.73,0,*79
1498852821.79,16697,16.56,73572.5,3.21,-11.55,-11.85,0,*7F
1498852823.04,16698,16.56,73568.8,3.21,-11.67,-12.07,0,*78
1498852824.29,16699,16.56,73572.0,3.21,-11.73,-12.11,0,*7B
1498852825.51,16700,16.56,73572.3,3.21,-11.85,-12.25,0,*74
1498852826.74,16701,16.56,73578.0,3.21,-11.93,-12.25,0,*72
1498852827.99,16702,16.56,73582.0,3.21,-11.97,-12.53,0,*74
1498852829.23,16703,16.56,73592.5,3.21,-12.25,-12.71,0,*7F
1498852830.45,16704,16.56,73592.5,3.21,-12.39,-12.79,0,*7D
1498852831.68,16705,16.56,73598.0,3.21,-12.53,-12.93,0,*74
1498852832.91,16706,16.56,73592.3,3.21,-12.65,-12.97,0,*76
1498852834.13,16707,16.56,73586.0,3.25,-12.61,-12.89,0,*78
1498852835.35,16708,16.56,73592.3,3.25,-12.75,-12.89,0,*72
1498852836.6,16709,16.56,73602.5,3.21,-12.79,-12.83,0,*71
1498852837.85,16710,16.56,73606.8,3.19,-12.79,-12.97,0,*77
1498852839.09,16711,16.56,73610.3,3.19,-12.83,-13.07,0,*7B
1498852840.32,16712,16.56,73608.5,3.19,-12.93,-12.93,0,*75
1498852841.56,16713,16.56,73606.0,3.19,-12.83,-12.93,0,*75
1498852842.77,16714,16.56,73592.8,3.21,-12.93,-12.93,0,*78
1498852844.02,16715,16.56,73572.0,3.25,-12.79,-12.79,0,*7D
1498852845.22,16716,16.56,73570.3,3.21,-12.93,-12.93,0,*7A
1498852846.45,16717,16.56,73576.8,3.21,-12.93,-12.83,0,*7A
1498852847.65,16718,16.56,73578.3,3.21,-12.93,-12.93,0,*74
1498852848.88,16719,16.56,73582.0,3.21,-12.93,-12.83,0,*74
1498852850.08,16720,16.56,73578.5,3.21,-13.07,-12.93,0,*73
1498852851.28,16721,16.56,73576.8,3.21,-13.07,-12.97,0,*76
1498852852.5,16722,16.56,73582.0,3.19,-13.07,-12.93,0,*7A
1498852853.7,16723,16.56,73578.3,3.21,-13.11,-12.93,0,*77
1498852854.9,16724,16.56,73576.3,3.21,-13.11,-12.97,0,*74
1498852856.12,16725,16.56,73568.5,3.21,-13.11,-12.83,0,*70
1498852857.33,16726,16.56,73566.5,3.21,-13.07,-12.93,0,*75
1498852858.55,16727,16.56,73560.0,3.21,-12.97,-12.83,0,*7D
1498852859.78,16728,16.56,73560.0,3.21,-13.07,-12.83,0,*7A
1498852861.02,16729,16.56,73562.5,3.19,-12.97,-12.83,0,*78
1498852862.25,16730,16.56,73562.5,3.19,-13.07,-12.97,0,*7D
1498852863.45,16731,16.56,73566.5,3.21,-12.97,-12.97,0,*7F
1498852864.68,16732,16.56,73562.3,3.19,-12.97,-12.93,0,*73
1498852865.9,16733,16.56,73570.8,3.19,-13.07,-12.93,0,*7A
1498852867.12,16734,16.56,73576.8,3.19,-12.97,-12.97,0,*71
1498852868.35,16735,16.56,73580.5,3.19,-13.07,-12.93,0,*7C
1498852869.57,16736,16.56,73582.3,3.21,-12.97,-12.83,0,*7D
1498852870.8,16737,16.56,73590.3,3.19,-12.97,-12.93,0,*76
1498852872.03,16738,16.56,73592.3,3.19,-12.97,-12.93,0,*79
1498852873.3,16739,16.56,73588.0,3.19,-12.83,-12.79,0,*79
1498852874.57,16740,16.56,73580.5,3.19,-12.83,-12.83,0,*72
1498852875.84,16741,16.56,73572.3,3.19,-12.83,-12.79,0,*76
1498852877.09,16742,16.56,73594.8,3.19,-12.93,-12.79,0,*74
1498852878.34,16743,16.56,73558.0,3.21,-12.57,-12.57,0,*7A
1498852879.61,16744,16.56,73544.0,3.19,-12.65,-12.53,0,*73
1498852880.88,16745,16.56,73554.5,3.19,-12.79,-12.65,0,*7A
1498852882.15,16746,16.56,73546.5,3.19,-12.65,-12.57,0,*75
1498852883.43,16747,16.56,73552.0,3.19,-12.79,-12.71,0,*7D
1498852884.71,16748,16.56,73550.0,3.19,-12.79,-12.71,0,*72
1498852885.96,16749,16.56,73550.5,3.21,-12.57,-12.53,0,*74
1498852887.2,16750,16.56,73544.8,3.25,-12.61,-12.61,0,*7C
1498852888.46,16751,16.56,73546.8,3.21,-12.79,-12.71,0,*71
1498852889.71,16752,16.56,73552.3,3.21,-12.79,-12.79,0,*7A
1498852890.96,16753,16.56,73552.0,3.25,-12.75,-12.65,0,*7E
1498852892.2,16754,16.56,73554.5,3.25,-12.65,-12.53,0,*7D
1498852893.44,16755,16.56,73566.0,3.21,-12.25,-12.35,0,*7C
1498852894.64,16756,16.56,73580.3,3.21,-12.47,-12.39,0,*77
1498852895.84,16757,16.56,73576.5,3.21,-12.47,-12.47,0,*7F
1498852897.03,16758,16.56,73574.0,3.25,-12.43,-12.29,0,*78
1498852898.23,16759,16.56,73570.5,3.25,-12.43,-12.47,0,*71
1498852899.45,16760,16.56,73572.0,3.25,-12.43,-12.53,0,*7E
1498852900.65,16761,16.56,73578.3,3.25,-12.47,-12.47,0,*7E
1498852901.89,16762,16.56,73556.5,3.25,-12.61,-12.75,0,*78
1498852903.14,16763,16.56,73558.8,3.21,-12.79,-12.83,0,*7D
1498852904.37,16764,16.56,73550.8,3.21,-12.79,-12.93,0,*7B
1498852905.62,16765,16.56,73550.8,3.25,-12.75,-12.75,0,*7A
1498852906.86,16766,16.56,73556.8,3.25,-12.65,-12.65,0,*79
1498852908.12,16767,16.56,73562.3,3.21,-12.65,-12.71,0,*79
1498852909.36,16768,16.56,73554.5,3.21,-12.65,-12.65,0,*73
1498852910.61,16769,16.56,73556.3,3.25,-12.57,-12.61,0,*73
1498852911.86,16770,16.56,73564.0,3.25,-12.53,-12.53,0,*7E
1498852913.1,16771,16.56,73560.8,3.21,-12.61,-12.61,0,*7B
1498852914.35,16772,16.56,73556.0,3.25,-12.65,-12.61,0,*78
1498852915.59,16773,16.56,73564.3,3.25,-12.61,-12.65,0,*79
1498852916.84,16774,16.56,73570.3,3.25,-12.57,-12.53,0,*7E
1498852918.08,16775,16.56,73578.8,3.25,-12.61,-12.65,0,*7F
1498852919.32,16776,16.56,73570.5,3.25,-12.65,-12.75,0,*79
1498852920.57,16777,16.56,73568.0,3.25,-12.61,-12.61,0,*79
1498852921.81,16778,16.56,73560.0,3.25,-12.65,-12.61,0,*72
1498852923.06,16779,16.56,73568.3,3.25,-12.61,-12.75,0,*72
1498852924.29,16780,16.56,73548.5,3.25,-12.61,-12.65,0,*75
1498852925.55,16781,16.56,73532.8,3.25,-12.53,-12.53,0,*70
1498852926.77,16782,16.56,73534.5,3.25,-12.53,-12.47,0,*76
1498852928.02,16783,16.56,73554.3,3.21,-12.57,-12.65,0,*77
1498852929.24,16784,16.56,73570.3,3.25,-12.53,-12.47,0,*70
1498852930.47,16785,16.56,73584.0,3.25,-12.47,-12.53,0,*71
1498852931.72,16786,16.56,73586.3,3.21,-12.57,-12.53,0,*77
1498852932.97,16787,16.56,73586.5,3.21,-12.57,-12.53,0,*76
1498852934.17,16788,16.56,73588.3,3.21,-12.47,-12.47,0,*7D
1498852935.36,16789,16.56,73594.0,3.25,-12.43,-12.43,0,*78
1498852936.59,16790,16.56,73592.5,3.25,-12.35,-12.29,0,*7D
1498852937.84,16791,16.56,73594.3,3.25,-12.35,-12.35,0,*71
1498852939.05,16792,16.56,73578.8,3.25,-12.21,-12.29,0,*7A
1498852940.25,16793,16.56,73574.0,3.25,-12.29,-12.29,0,*73
1498852941.44,16794,16.5,73560.5,3.25,-12.47,-12.39,0,*7D
1498852942.67,16795,16.56,73582.0,3.27,-12.47,-12.43,0,*73
1498852943.92,16796,16.56,73574.5,3.27,-12.35,-12.29,0,*79
1498852945.17,16797,16.56,73584.5,3.25,-12.35,-12.35,0,*77
1498852946.37,16798,16.56,73574.5,3.25,-12.43,-12.29,0,*74
1498852947.61,16799,16.5,73568.3,3.25,-12.15,-12.15,0,*79
1498852948.86,16800,16.56,73556.3,3.25,-12.15,-12.15,0,*76
1498852950.06,16801,16.56,73554.0,3.25,-12.21,-12.21,0,*77
1498852951.29,16802,16.56,73548.8,3.25,-12.35,-12.21,0,*71
1498852952.51,16803,16.56,73570.5,3.25,-12.35,-12.29,0,*78
1498852953.73,16804,16.56,73590.0,3.25,-12.29,-12.15,0,*7D
1498852954.98,16805,16.56,73578.8,3.27,-12.03,-11.93,0,*7B
1498852956.2,16806,16.56,73554.5,3.25,-12.03,-11.81,0,*79
1498852957.45,16807,16.56,73564.8,3.25,-12.07,-11.93,0,*7F
1498852958.67,16808,16.56,73580.0,3.25,-12.15,-12.03,0,*79
1498852959.92,16809,16.56,73576.5,3.25,-12.15,-12.07,0,*7C
1498852961.17,16810,16.56,73586.0,3.25,-12.15,-12.07,0,*74
1498852962.42,16811,16.56,73588.0,3.27,-12.07,-12.03,0,*70
1498852963.67,16812,16.56,73586.0,3.25,-12.07,-11.93,0,*7B
1498852964.92,16813,16.56,73578.0,3.25,-12.15,-11.93,0,*79
1498852966.15,16814,16.5,73576.8,3.25,-12.07,-12.03,0,*77
1498852967.37,16815,16.56,73576.8,3.25,-12.15,-12.03,0,*75
1498852968.6,16816,16.56,73582.8,3.21,-12.21,-12.07,0,*71
1498852969.82,16817,16.5,73582.3,3.25,-12.15,-12.03,0,*77
1498852971.07,16818,16.56,73582.0,3.25,-12.07,-12.07,0,*7F
1498852972.3,16819,16.56,73586.5,3.25,-12.21,-12.07,0,*7A
1498852973.55,16820,16.5,73578.0,3.25,-12.07,-11.93,0,*7A
1498852974.78,16821,16.5,73572.0,3.25,-12.15,-12.03,0,*72
1498852976.03,16822,16.56,73578.3,3.21,-12.07,-11.93,0,*7C
1498852977.25,16823,16.56,73578.0,3.25,-12.03,-11.89,0,*76
1498852978.47,16824,16.5,73590.0,3.25,-12.03,-11.89,0,*71
1498852979.7,16825,16.56,73584.0,3.25,-12.03,-11.89,0,*70
1498852980.91,16826,16.56,73582.5,3.25,-12.03,-11.81,0,*7B
1498852982.16,16827,16.56,73608.3,3.25,-11.89,-11.63,0,*77
1498852983.4,16828,16.56,73568.8,3.25,-11.51,-11.37,0,*7C
1498852984.65,16829,16.5,73558.5,3.25,-11.51,-11.37,0,*7D
1498852985.9,16830,16.5,73556.8,3.27,-11.67,-11.45,0,*77
1498852987.17,16831,16.56,73568.5,3.27,-11.89,-11.63,0,*72
1498852988.42,16832,16.56,73576.0,3.25,-11.81,-11.63,0,*7B
1498852989.66,16833,16.56,73572.0,3.25,-11.77,-11.51,0,*72
1498852990.93,16834,16.56,73570.5,3.27,-11.77,-11.51,0,*77
1498852992.18,16835,16.56,73578.3,3.27,-11.67,-11.45,0,*72
1498852993.45,16836,16.56,73570.5,3.27,-11.55,-11.37,0,*75
1498852994.72,16837,16.56,73576.0,3.27,-11.55,-11.37,0,*74
1498852996.0,16838,16.56,73580.8,3.27,-11.63,-11.37,0,*7E
1498852997.23,16839,16.56,73576.8,3.29,-11.63,-11.41,0,*70
1498852998.48,16840,16.56,73584.3,3.29,-11.63,-11.33,0,*7B
1498852999.73,16841,16.56,73586.3,3.27,-11.63,-11.45,0,*75
1498853000.98,16842,16.56,73584.0,3.27,-11.67,-11.45,0,*72
1498853002.22,16843,16.5,73574.3,3.27,-11.67,-11.45,0,*73
1498853003.47,16844,16.56,73570.8,3.27,-11.67,-11.45,0,*74
1498853004.72,16845,16.56,73564.3,3.27,-11.67,-11.45,0,*75
1498853005.97,16846,16.56,73570.5,3.27,-11.55,-11.23,0,*77
1498853007.22,16847,16.56,73568.8,3.27,-11.55,-11.11,0,*77
1498853008.43,16848,16.56,73558.8,3.29,-11.45,-11.01,0,*76
1498853009.68,16849,16.56,73564.3,3.27,-11.51,-10.97,0,*72
1498853010.92,16850,16.56,73568.0,3.27,-11.51,-10.85,0,*79
1498853012.16,16851,16.56,73568.0,3.25,-11.37,-10.79,0,*79
1498853013.41,16852,16.56,73568.5,3.25,-11.37,-10.71,0,*72
1498853014.65,16853,16.56,73568.3,3.25,-11.37,-10.71,0,*73
1498853015.91,16854,16.5,73558.5,3.27,-11.45,-10.71,0,*73
1498853017.14,16855,16.56,73556.3,3.29,-11.41,-10.67,0,*7F
1498853018.41,16856,16.56,73560.0,3.27,-11.37,-10.71,0,*74
1498853019.67,16857,16.56,73560.0,3.27,-11.23,-10.67,0,*77
1498853020.9,16858,16.56,73558.3,3.29,-11.07,-10.57,0,*73
1498853022.15,16859,16.56,73560.0,3.27,-11.11,-10.67,0,*78
1498853023.43,16860,16.56,73570.0,3.27,-11.07,-10.63,0,*71
1498853024.71,16861,16.56,73572.5,3.27,-11.07,-10.67,0,*74
1498853026.0,16862,16.5,73574.3,3.27,-11.07,-10.67,0,*77
1498853027.28,16863,16.56,73574.3,3.27,-11.07,-10.67,0,*76
1498853028.53,16864,16.56,73578.3,3.27,-10.97,-10.63,0,*7D
1498853029.79,16865,16.56,73574.5,3.27,-10.93,-10.63,0,*78
1498853031.01,16866,16.56,73574.0,3.29,-10.79,-10.57,0,*76
1498853032.26,16867,16.56,73574.5,3.27,-10.85,-10.63,0,*7D
1498853033.48,16868,16.56,73576.0,3.27,-10.85,-10.49,0,*7A
1498853034.73,16869,16.5,73572.0,3.27,-10.71,-10.53,0,*7B
1498853035.99,16870,16.56,73590.0,3.27,-10.67,-10.35,0,*74
1498853037.25,16871,16.56,73594.5,3.27,-10.63,-10.35,0,*71
1498853038.46,16872,16.56,73594.5,3.29,-10.45,-10.31,0,*7C
1498853039.68,16873,16.5,73580.5,3.27,-10.35,-10.23,0,*77
1498853040.9,16874,16.56,73580.0,3.27,-10.27,-10.23,0,*73
1498853042.13,16875,16.56,73572.0,3.27,-10.27,-10.35,0,*75
1498853043.34,16876,16.56,73568.3,3.29,-10.35,-10.49,0,*70
1498853044.55,16877,16.56,73560.0,3.29,-10.31,-10.49,0,*75
1498853045.82,16878,16.5,73564.5,3.27,-10.41,-10.63,0,*7B
1498853047.03,16879,16.56,73566.0,3.29,-10.35,-10.57,0,*70
1498853048.26,16880,16.5,73540.0,3.29,-10.35,-10.63,0,*71
1498853049.51,16881,16.56,73544.5,3.27,-10.49,-10.63,0,*75
1498853050.76,16882,16.56,73558.8,3.27,-10.53,-10.63,0,*7D
1498853052.01,16883,16.56,73574.5,3.27,-10.49,-10.63,0,*77
1498853053.25,16884,16.5,73576.5,3.27,-10.49,-10.63,0,*70
1498853054.51,16885,16.56,73556.0,3.27,-10.35,-10.41,0,*7A
1498853055.76,16886,16.56,73562.8,3.27,-10.41,-10.53,0,*79
1498853057.01,16887,16.5,73562.0,3.27,-10.41,-10.49,0,*73
1498853058.26,16888,16.56,73564.8,3.27,-10.41,-10.49,0,*7C
1498853059.46,16889,16.56,73576.5,3.29,-10.49,-10.49,0,*7B
1498853060.67,16890,16.56,73584.8,3.29,-10.45,-10.35,0,*74
1498853061.89,16891,16.56,73586.5,3.27,-10.49,-10.49,0,*7C
1498853063.11,16892,16.5,73572.5,3.27,-10.53,-10.49,0,*74
1498853064.33,16893,16.5,73564.8,3.27,-10.53,-10.49,0,*75
1498853065.55,16894,16.56,73574.0,3.27,-10.53,-10.49,0,*72
1498853066.75,16895,16.56,73578.3,3.29,-10.45,-10.49,0,*7A
1498853067.97,16896,16.56,73582.3,3.27,-10.49,-10.49,0,*7B
1498853069.18,16897,16.56,73582.5,3.29,-10.31,-10.31,0,*74
1498853070.38,16898,16.56,73580.5,3.29,-10.31,-10.23,0,*78
1498853071.58,16899,16.56,73576.3,3.29,-10.23,-10.05,0,*7E
1498853072.78,16900,16.56,73576.5,3.29,-10.19,-9.93,0,*41
1498853073.97,16901,16.56,73574.3,3.29,-10.09,-9.97,0,*45
1498853075.17,16902,16.5,73554.5,3.29,-10.23,-9.97,0,*4E
1498853076.39,16903,16.56,73566.5,3.27,-10.23,-10.05,0,*72
1498853077.58,16904,16.5,73566.3,3.29,-10.09,-9.97,0,*40
1498853078.79,16905,16.56,73564.5,3.27,-10.15,-9.89,0,*4D
1498853079.99,16906,16.56,73566.0,3.29,-10.05,-9.79,0,*4E
1498853081.17,16907,16.5,73556.0,3.29,-9.97,-9.67,0,*73
1498853082.38,16908,16.5,73560.8,3.29,-9.83,-9.79,0,*76
1498853083.6,16909,16.56,73562.8,3.29,-9.79,-9.61,0,*7B
1498853084.82,16910,16.56,73570.0,3.29,-9.67,-9.53,0,*7D
1498853086.04,16911,16.5,73566.0,3.29,-9.41,-9.27,0,*7B
1498853087.28,16912,16.5,73564.8,3.29,-9.41,-9.37,0,*79
1498853088.53,16913,16.5,73564.3,3.29,-9.37,-9.41,0,*78
1498853089.75,16914,16.5,73568.5,3.29,-9.27,-9.53,0,*7D
1498853090.94,16915,16.5,73568.0,3.29,-9.27,-9.67,0,*7B
1498853092.14,16916,16.56,73564.5,3.29,-9.27,-9.67,0,*78
1498853093.33,16917,16.56,73548.0,3.29,-9.27,-9.97,0,*76
1498853094.53,16918,16.5,73534.8,3.29,-9.27,-10.05,0,*4A
1498853095.77,16919,16.5,73540.5,3.27,-9.41,-10.09,0,*49
1498853096.97,16920,16.56,73566.8,3.29,-9.27,-10.09,0,*4D
1498853098.19,16921,16.56,73580.5,3.27,-9.31,-9.97,0,*7A
1498853099.4,16922,16.5,73578.8,3.29,-9.23,-9.83,0,*71
1498853100.65,16923,16.56,73560.5,3.29,-9.15,-9.83,0,*75
1498853101.87,16924,16.56,73560.8,3.29,-9.27,-9.83,0,*73
1498853103.12,16925,16.5,73550.3,3.29,-9.37,-9.83,0,*73
1498853104.34,16926,16.5,73562.5,3.29,-9.37,-9.79,0,*75
1498853105.58,16927,16.5,73558.3,3.29,-9.37,-9.61,0,*7D
1498853106.81,16928,16.5,73554.5,3.29,-9.41,-9.67,0,*75
1498853108.02,16929,16.56,73570.3,3.29,-9.49,-9.67,0,*7C
1498853109.26,16930,16.5,73568.0,3.29,-9.49,-9.61,0,*72
1498853110.5,16931,16.5,73570.3,3.29,-9.49,-9.61,0,*73
1498853111.75,16932,16.5,73570.3,3.29,-9.41,-9.53,0,*79
1498853112.99,16933,16.5,73580.8,3.29,-9.49,-9.49,0,*7B
1498853114.25,16934,16.5,73580.3,3.27,-9.53,-9.53,0,*72
1498853115.49,16935,16.5,73576.0,3.29,-9.49,-9.41,0,*75
1498853116.72,16936,16.5,73580.8,3.29,-9.53,-9.53,0,*7E
1498853117.97,16937,16.5,73598.0,3.29,-9.49,-9.53,0,*74
1498853119.21,16938,16.5,73590.3,3.29,-9.53,-9.53,0,*70
1498853120.45,16939,16.5,73590.0,3.29,-9.49,-9.53,0,*7A
1498853121.69,16940,16.5,73588.5,3.29,-9.41,-9.49,0,*77
1498853122.94,16941,16.56,73594.0,3.29,-9.49,-9.53,0,*75
1498853124.18,16942,16.5,73594.8,3.29,-9.49,-9.53,0,*76
1498853125.42,16943,16.5,73594.0,3.29,-9.49,-9.61,0,*76
1498853126.66,16944,16.5,73596.0,3.29,-9.49,-9.53,0,*70
1498853127.91,16945,16.5,73586.8,3.27,-9.53,-9.57,0,*70
1498853129.17,16946,16.56,73602.3,3.27,-9.53,-9.57,0,*73
1498853130.42,16947,16.56,73602.3,3.29,-9.41,-9.53,0,*7B
1498853131.66,16948,16.5,73602.3,3.29,-9.41,-9.41,0,*77
1498853132.9,16949,16.56,73616.5,3.29,-9.41,-9.41,0,*76
1498853134.14,16950,16.5,73588.0,3.27,-9.27,-9.41,0,*70
1498853135.36,16951,16.5,73582.5,3.29,-9.11,-9.23,0,*7E
1498853136.55,16952,16.5,73584.0,3.29,-9.23,-9.23,0,*7C
1498853137.77,16953,16.5,73570.8,3.29,-9.15,-9.27,0,*7C
1498853139.0,16954,16.5,73578.5,3.29,-9.15,-9.23,0,*7F
1498853140.18,16955,16.5,73570.8,3.29,-9.23,-9.23,0,*7B
1498853141.43,16956,16.5,73564.3,3.27,-9.15,-9.19,0,*7A
1498853142.65,16957,16.5,73564.5,3.29,-9.11,-9.23,0,*78
1498853143.86,16958,16.56,73568.0,3.27,-9.19,-9.19,0,*78
1498853145.07,16959,16.5,73570.8,3.27,-9.01,-9.05,0,*7D
1498853146.3,16960,16.5,73572.0,3.29,-9.01,-9.11,0,*7C
1498853147.52,16961,16.5,73574.8,3.29,-8.97,-9.11,0,*73
1498853148.73,16962,16.5,73558.0,3.29,-8.81,-8.97,0,*78
1498853149.95,16963,16.5,73570.3,3.29,-8.81,-9.01,0,*77
1498853151.15,16964,16.5,73572.5,3.29,-8.89,-9.01,0,*78
1498853152.36,16965,16.5,73574.0,3.29,-8.81,-8.97,0,*7F
1498853153.58,16966,16.5,73564.3,3.29,-8.71,-8.81,0,*74
1498853154.77,16967,16.5,73564.3,3.29,-8.71,-8.85,0,*71
1498853155.97,16968,16.5,73572.8,3.29,-8.67,-8.85,0,*79
1498853157.16,16969,16.5,73582.3,3.29,-8.67,-8.85,0,*78
1498853158.35,16970,16.5,73590.3,3.29,-8.67,-8.85,0,*70
1498853159.55,16971,16.5,73584.5,3.29,-8.67,-8.85,0,*71
1498853160.78,16972,16.5,73592.3,3.31,-8.67,-8.81,0,*7F
1498853161.99,16973,16.5,73602.8,3.31,-8.67,-8.85,0,*7A
1498853163.22,16974,16.5,73604.0,3.31,-8.67,-8.81,0,*79
1498853164.43,16975,16.5,73592.3,3.31,-8.55,-8.71,0,*76
1498853165.64,16976,16.5,73578.5,3.31,-8.45,-8.71,0,*74
1498853166.87,16977,16.5,73564.5,3.31,-8.59,-8.81,0,*77
1498853168.08,16978,16.5,73560.0,3.31,-8.59,-8.71,0,*77
1498853169.32,16979,16.5,73566.0,3.33,-8.55,-8.81,0,*77
1498853170.53,16980,16.5,73574.0,3.31,-8.59,-8.85,0,*7B
1498853171.8,16981,16.5,73574.5,3.33,-8.51,-8.81,0,*74
1498853173.01,16982,16.5,73578.8,3.31,-8.59,-8.85,0,*79
1498853174.25,16983,16.5,73584.8,3.33,-8.51,-8.75,0,*7D
1498853175.47,16984,16.5,73582.5,3.33,-8.41,-8.63,0,*7C
1498853176.69,16985,16.5,73578.5,3.33,-8.37,-8.75,0,*7B
1498853177.9,16986,16.5,73580.8,3.33,-8.41,-8.67,0,*7A
1498853179.11,16987,16.5,73586.5,3.31,-8.45,-8.71,0,*7A
1498853180.31,16988,16.5,73600.3,3.31,-8.59,-8.75,0,*7C
1498853181.52,16989,16.5,73602.0,3.31,-8.41,-8.71,0,*70
1498853182.72,16990,16.5,73608.5,3.31,-8.29,-8.55,0,*70
1498853183.97,16991,16.5,73610.8,3.31,-8.07,-8.45,0,*7C
1498853185.21,16992,16.5,73560.3,3.33,-8.03,-8.37,0,*7C
1498853186.44,16993,16.5,73556.0,3.31,-8.03,-8.33,0,*7B
1498853187.68,16994,16.5,73564.0,3.33,-7.99,-8.25,0,*75
1498853188.9,16995,16.5,73594.5,3.33,-8.17,-8.37,0,*7E
1498853190.14,16996,16.5,73602.3,3.31,-8.17,-8.51,0,*7F
1498853191.38,16997,16.5,73598.5,3.33,-8.11,-8.41,0,*7B
1498853192.63,16998,16.5,73604.5,3.33,-8.17,-8.51,0,*73
1498853193.87,16999,16.5,73598.5,3.33,-8.17,-8.51,0,*72
1498853195.11,17000,16.5,73598.3,3.33,-8.17,-8.51,0,*7A
1498853196.36,17001,16.5,73582.5,3.33,-8.25,-8.51,0,*7A
1498853197.58,17002,16.5,73580.5,3.33,-8.17,-8.41,0,*79
1498853198.83,17003,16.5,73566.8,3.33,-8.11,-8.37,0,*7F
1498853200.07,17004,16.5,73572.8,3.33,-8.11,-8.41,0,*79
1498853201.3,17005,16.5,73568.5,3.31,-8.03,-8.33,0,*7C
1498853202.54,17006,16.5,73566.8,3.33,-7.99,-8.29,0,*7A
1498853203.78,17007,16.5,73552.5,3.33,-7.99,-8.25,0,*77
1498853205.05,17008,16.5,73562.8,3.33,-7.99,-8.11,0,*7F
1498853206.29,17009,16.5,73562.0,3.33,-7.87,-8.11,0,*71
1498853207.52,17010,16.5,73558.5,3.31,-7.91,-8.17,0,*7A
1498853208.77,17011,16.5,73550.8,3.33,-7.87,-8.11,0,*78
1498853210.01,17012,16.5,73552.3,3.33,-7.95,-8.17,0,*7E
1498853211.25,17013,16.5,73576.3,3.33,-7.87,-8.11,0,*7A
1498853212.52,17014,16.5,73576.3,3.31,-7.91,-8.07,0,*7F
1498853213.76,17015,16.5,73576.8,3.33,-7.87,-8.03,0,*7F
1498853215.02,17016,16.5,73598.0,3.31,-7.77,-8.03,0,*71
1498853216.24,17017,16.5,73608.8,3.35,-7.65,-7.83,0,*70
1498853217.48,17018,16.5,73608.0,3.35,-7.77,-7.95,0,*7B
1498853218.72,17019,16.5,73604.3,3.33,-7.83,-7.95,0,*77
1498853219.96,17020,16.5,73598.8,3.35,-7.69,-7.91,0,*7B
1498853221.2,17021,16.5,73610.8,3.35,-7.65,-7.91,0,*76
1498853222.45,17022,16.5,73632.0,3.35,-7.65,-7.77,0,*7D
1498853223.67,17023,16.5,73644.5,3.35,-7.65,-7.83,0,*77
1498853224.91,17024,16.5,73632.0,3.35,-7.43,-7.57,0,*7D
1498853226.16,17025,16.5,73606.8,3.35,-7.31,-7.43,0,*7C
1498853227.37,17026,16.5,73608.8,3.35,-7.39,-7.53,0,*76
1498853228.57,17027,16.5,73612.3,3.35,-7.39,-7.53,0,*77
1498853229.81,17028,16.5,73600.0,3.35,-7.39,-7.57,0,*7C
1498853231.08,17029,16.5,73588.3,3.37,-7.43,-7.57,0,*72
1498853232.32,17030,16.5,73588.8,3.37,-7.43,-7.53,0,*7E
1498853233.55,17031,16.56,73612.8,3.37,-7.31,-7.53,0,*7A
1498853234.76,17032,16.5,73614.0,3.35,-7.39,-7.53,0,*73
1498853236.03,17033,16.5,73600.3,3.37,-7.27,-7.39,0,*73
1498853237.27,17034,16.5,73596.3,3.37,-7.19,-7.31,0,*71
1498853238.53,17035,16.5,73602.5,3.37,-7.39,-7.27,0,*75
1498853239.8,17036,16.5,73602.5,3.37,-7.31,-7.27,0,*7E
1498853241.06,17037,16.5,73598.0,3.37,-7.27,-7.27,0,*78
1498853242.28,17038,16.5,73598.8,3.37,-7.19,-7.15,0,*7B
1498853243.48,17039,16.5,73596.5,3.39,-7.15,-7.11,0,*7C
1498853244.72,17040,16.5,73598.0,3.37,-7.15,-7.05,0,*79
1498853245.98,17041,16.5,73594.8,3.37,-7.01,-6.97,0,*77
1498853247.22,17042,16.5,73588.8,3.37,-6.97,-6.89,0,*75
1498853248.44,17043,16.5,73588.5,3.37,-6.89,-6.77,0,*7A
1498853249.68,17044,16.5,73588.0,3.37,-6.89,-6.63,0,*78
1498853250.9,17045,16.5,73588.0,3.37,-6.89,-6.51,0,*78
1498853252.12,17046,16.5,73588.5,3.37,-6.85,-6.51,0,*77
1498853253.34,17047,16.56,73596.5,3.37,-6.89,-6.51,0,*7A
1498853254.55,17048,16.5,73596.8,3.37,-6.85,-6.47,0,*7E
1498853255.75,17049,16.5,73602.5,3.39,-6.81,-6.43,0,*71
1498853256.94,17050,16.5,73608.8,3.39,-6.81,-6.35,0,*78
1498853258.14,17051,16.5,73614.3,3.39,-6.81,-6.35,0,*79
1498853259.34,17052,16.5,73614.8,3.39,-6.81,-6.31,0,*7E
1498853260.52,17053,16.5,73616.0,3.39,-6.69,-6.13,0,*79
1498853261.74,17054,16.5,73614.8,3.39,-6.81,-5.93,0,*73
1498853262.95,17055,16.5,73620.0,3.39,-6.73,-5.81,0,*7C
1498853264.2,17056,16.5,73606.5,3.41,-6.59,-5.65,0,*72
1498853265.39,17057,16.5,73586.3,3.39,-6.43,-5.39,0,*7E
1498853266.64,17058,16.5,73574.0,3.41,-6.47,-5.31,0,*72
1498853267.86,17059,16.5,73574.3,3.39,-6.55,-5.23,0,*7C
1498853269.08,17060,16.5,73586.8,3.41,-6.47,-4.99,0,*7A
1498853270.29,17061,16.5,73592.5,3.39,-6.55,-4.77,0,*77
1498853271.51,17062,16.5,73598.3,3.41,-6.55,-4.49,0,*76
1498853272.71,17063,16.5,73592.3,3.39,-6.35,-4.13,0,*71
1498853273.92,17064,16.5,73586.8,3.39,-6.23,-3.95,0,*78
1498853275.16,17065,16.5,73580.5,3.41,-6.13,-3.59,0,*75
1498853276.41,17066,16.5,73580.0,3.41,-5.93,-3.19,0,*79
1498853277.65,17067,16.5,73582.8,3.41,-5.69,-2.79,0,*7A
1498853278.86,17068,16.5,73586.0,3.41,-5.43,-2.43,0,*74
1498853280.11,17069,16.5,73584.3,3.41,-5.23,-2.23,0,*75
1498853281.35,17070,16.5,73582.5,3.41,-4.99,-1.83,0,*74
1498853282.57,17071,16.5,73588.3,3.41,-4.61,-1.67,0,*78
1498853283.81,17072,16.5,73594.0,3.41,-4.37,-1.43,0,*7E
1498853285.06,17073,16.5,73592.5,3.41,-4.13,-1.35,0,*78
1498853286.28,17074,16.5,73598.3,3.41,-3.87,-1.25,0,*74
1498853287.53,17075,16.5,73594.5,3.41,-3.59,-1.21,0,*72
1498853288.77,17076,16.5,73594.3,3.41,-3.47,-1.25,0,*7A
1498853290.01,17077,16.5,73596.0,3.41,-3.23,-1.35,0,*78
1498853291.26,17078,16.5,73594.0,3.41,-3.19,-1.47,0,*7B
1498853292.45,17079,16.5,73596.5,3.43,-2.95,-1.55,0,*7E
1498853293.64,17080,16.5,73598.8,3.43,-2.91,-1.67,0,*7D
1498853294.86,17081,16.5,73596.5,3.43,-2.95,-1.87,0,*76
1498853296.05,17082,16.5,73586.0,3.43,-3.03,-2.15,0,*73
1498853297.27,17083,16.5,73582.3,3.41,-3.11,-2.43,0,*70
1498853298.52,17084,16.5,73582.3,3.41,-3.11,-2.59,0,*7C
1498853299.71,17085,16.5,73580.3,3.43,-3.31,-2.83,0,*7A
1498853300.92,17086,16.5,73572.5,3.43,-3.43,-3.07,0,*71
1498853302.17,17087,16.5,73568.0,3.45,-3.67,-3.27,0,*72
1498853303.38,17088,16.5,73566.8,3.43,-3.79,-3.55,0,*71
1498853304.62,17089,16.5,73566.0,3.45,-3.91,-3.67,0,*71
1498853305.81,17090,16.5,73568.0,3.43,-4.09,-3.79,0,*76
1498853307.03,17091,16.5,73574.8,3.45,-4.17,-3.91,0,*78
1498853308.22,17092,16.5,73572.5,3.43,-4.29,-3.95,0,*74
1498853309.4,17093,16.5,73578.0,3.43,-4.29,-4.17,0,*78
1498853310.59,17094,16.5,73576.3,3.43,-4.29,-4.17,0,*7F
1498853311.78,17095,16.5,73576.5,3.43,-4.41,-4.21,0,*75
1498853312.98,17096,16.5,73580.0,3.43,-4.33,-4.29,0,*7B